LRBV Weather Reports


time (UTC)temp
C
wind
direction
speed
KPH
gust
KPH
rain 1hr
cm
rain 24hr
cm
rain mn
cm
humidity
%
barometer
mb
20260507104850 25 330 4.8 0.0 0.00 0.00 0.00 30 1014.0
20260507103350 25 330 4.8 0.0 0.00 0.00 0.00 30 1014.0
20260507101850 25 4.8 0.0 0.00 0.00 0.00 28 1015.0
20260507100351 25 4.8 0.0 0.00 0.00 0.00 28 1015.0
20260507094851 23 60 9.7 0.0 0.00 0.00 0.00 29 1015.0
20260507093351 23 60 9.7 0.0 0.00 0.00 0.00 29 1015.0
20260507091852 22 100 4.8 0.0 0.00 0.00 0.00 41 1015.0
20260507090351 22 100 4.8 0.0 0.00 0.00 0.00 41 1015.0
20260507084850 20 40 4.8 0.0 0.00 0.00 0.00 49 1015.0
20260507083351 20 40 4.8 0.0 0.00 0.00 0.00 49 1015.0
20260507081851 18 60 8.0 0.0 0.00 0.00 0.00 49 1016.0
20260507080351 18 60 8.0 0.0 0.00 0.00 0.00 49 1016.0
20260507074851 18 100 12.9 0.0 0.00 0.00 0.00 52 1016.0
20260507073350 18 100 12.9 0.0 0.00 0.00 0.00 52 1016.0
20260507071851 17 100 9.7 0.0 0.00 0.00 0.00 56 1016.0
20260507070350 17 100 9.7 0.0 0.00 0.00 0.00 56 1016.0
20260507064850 16 100 9.7 0.0 0.00 0.00 0.00 59 1016.0
20260507063350 16 100 9.7 0.0 0.00 0.00 0.00 59 1016.0
20260507061900 13 110 11.3 0.0 0.00 0.00 0.00 67 1016.0
20260507060350 13 110 11.3 0.0 0.00 0.00 0.00 67 1016.0
20260507054850 12 3.2 0.0 0.00 0.00 0.00 72 1016.0
20260507053358 12 3.2 0.0 0.00 0.00 0.00 72 1016.0
20260507051851 11 1.6 0.0 0.00 0.00 0.00 77 1016.0
20260507050350 11 1.6 0.0 0.00 0.00 0.00 77 1016.0
20260507044844 10 3.2 0.0 0.00 0.00 0.00 82 1016.0
20260507043350 10 3.2 0.0 0.00 0.00 0.00 82 1016.0
20260507041851 8 50 4.8 0.0 0.00 0.00 0.00 87 1016.0
20260507040350 8 50 4.8 0.0 0.00 0.00 0.00 87 1016.0
20260507034847 8 1.6 0.0 0.00 0.00 0.00 82 1016.0
20260507033350 8 1.6 0.0 0.00 0.00 0.00 82 1016.0
20260507031847 7 3.2 0.0 0.00 0.00 0.00 87 1016.0
20260507030350 7 3.2 0.0 0.00 0.00 0.00 87 1016.0
20260507024847 7 4.8 0.0 0.00 0.00 0.00 87 1015.0
20260507023350 7 4.8 0.0 0.00 0.00 0.00 87 1015.0
20260507021851 7 0 0.0 0.0 0.00 0.00 0.00 87 1015.0
20260507020350 7 0 0.0 0.0 0.00 0.00 0.00 87 1015.0
20260507014850 8 4.8 0.0 0.00 0.00 0.00 87 1015.0
20260507013350 8 4.8 0.0 0.00 0.00 0.00 87 1015.0
20260507011850 7 4.8 0.0 0.00 0.00 0.00 82 1015.0
20260507010351 7 4.8 0.0 0.00 0.00 0.00 82 1015.0
20260507004850 8 140 4.8 0.0 0.00 0.00 0.00 82 1015.0
20260507003351 8 140 4.8 0.0 0.00 0.00 0.00 82 1015.0
20260507001850 11 100 8.0 0.0 0.00 0.00 0.00 77 1015.0
20260507000350 11 100 8.0 0.0 0.00 0.00 0.00 77 1015.0
20260506234850 12 4.8 0.0 0.00 0.00 0.00 67 1015.0
20260506233350 12 4.8 0.0 0.00 0.00 0.00 67 1015.0
20260506231848 11 40 8.0 0.0 0.00 0.00 0.00 72 1015.0
20260506230350 11 40 8.0 0.0 0.00 0.00 0.00 72 1015.0
20260506224847 12 4.8 0.0 0.00 0.00 0.00 67 1015.0
20260506223350 12 4.8 0.0 0.00 0.00 0.00 67 1015.0
20260506221850 13 20 8.0 0.0 0.00 0.00 0.00 67 1015.0
20260506220350 13 20 8.0 0.0 0.00 0.00 0.00 67 1015.0
20260506214903 15 20 9.7 0.0 0.00 0.00 0.00 59 1015.0
20260506213350 15 20 9.7 0.0 0.00 0.00 0.00 59 1015.0
20260506211844 13 140 9.7 0.0 0.00 0.00 0.00 67 1014.0
20260506210350 13 140 9.7 0.0 0.00 0.00 0.00 67 1014.0
20260506204851 15 170 11.3 0.0 0.00 0.00 0.00 63 1014.0
20260506203350 15 170 11.3 0.0 0.00 0.00 0.00 63 1014.0
20260506201844 16 210 14.5 0.0 0.00 0.00 0.00 59 1014.0
20260506200350 16 210 14.5 0.0 0.00 0.00 0.00 59 1014.0
20260506194906 17 220 22.5 0.0 0.00 0.00 0.00 56 1014.0
20260506193414 17 220 22.5 0.0 0.00 0.00 0.00 56 1014.0
20260506191851 17 220 20.9 0.0 0.00 0.00 0.00 56 1014.0
20260506190351 17 220 20.9 0.0 0.00 0.00 0.00 56 1014.0
20260506184853 17 210 24.1 0.0 0.00 0.00 0.00 52 1014.0
20260506183350 17 210 24.1 0.0 0.00 0.00 0.00 52 1014.0
20260506181851 17 210 29.0 0.0 0.00 0.00 0.00 52 1013.0
20260506180351 17 210 29.0 0.0 0.00 0.00 0.00 52 1013.0
20260506174851 17 210 27.4 0.0 0.00 0.00 0.00 52 1013.0
20260506173350 17 210 27.4 0.0 0.00 0.00 0.00 52 1013.0
20260506171851 18 210 25.7 0.0 0.00 0.00 0.00 46 1013.0
20260506170350 18 210 25.7 0.0 0.00 0.00 0.00 46 1013.0
20260506164850 20 220 27.4 0.0 0.00 0.00 0.00 40 1013.0
20260506163350 20 220 27.4 0.0 0.00 0.00 0.00 40 1013.0
20260506161851 20 230 33.8 0.0 0.00 0.00 0.00 38 1013.0
20260506160350 20 230 33.8 0.0 0.00 0.00 0.00 38 1013.0
20260506154851 20 220 37.0 0.0 0.00 0.00 0.00 40 1013.0
20260506153350 20 220 37.0 0.0 0.00 0.00 0.00 40 1013.0
20260506151850 21 220 45.1 62.8 0.00 0.00 0.00 38 1013.0
20260506150356 21 220 45.1 62.8 0.00 0.00 0.00 38 1013.0
20260506144850 22 210 45.1 0.0 0.00 0.00 0.00 36 1013.0
20260506143402 22 210 45.1 0.0 0.00 0.00 0.00 36 1013.0
20260506141850 21 210 48.3 0.0 0.00 0.00 0.00 43 1013.0
20260506140512 21 210 48.3 0.0 0.00 0.00 0.00 43 1013.0
20260506134915 22 220 45.1 0.0 0.00 0.00 0.00 36 1013.0
20260506133350 22 220 45.1 0.0 0.00 0.00 0.00 36 1013.0
20260506130359 26 4.8 0.0 0.00 0.00 0.00 21 1013.0
20260506124851 25 8.0 0.0 0.00 0.00 0.00 19 1013.0
20260506123350 25 8.0 0.0 0.00 0.00 0.00 19 1013.0
20260506121851 26 4.8 0.0 0.00 0.00 0.00 24 1013.0
20260506120350 26 4.8 0.0 0.00 0.00 0.00 24 1013.0
20260506114850 25 60 4.8 0.0 0.00 0.00 0.00 24 1014.0
20260506113351 25 60 4.8 0.0 0.00 0.00 0.00 24 1014.0
20260506111850 23 30 8.0 0.0 0.00 0.00 0.00 31 1014.0
20260506110350 23 30 8.0 0.0 0.00 0.00 0.00 31 1014.0